Regional Weather Roundup
Issued by NWS

Home | Current Version | Previous Version | Text Only | Print | Product List | Glossary On
Versions: 1 2 3 4 5 6 7 8 9 10 11 12 13 14 15 16 17 18 19 20 21 22 23 24 25 26 27 28 29 30 31 32 33 34 35 36 37 38 39 40 41 42 43 44 45 46 47 48 49 50
438
ASUS42 KKEY 230810
RWRKEY

FLORIDA REGIONAL WEATHER ROUNDUP FOR THE FLORIDA KEYS
NATIONAL WEATHER SERVICE KEY WEST FLORIDA
400 AM EDT SUN APR 23 2017

...SOUTH FLORIDA AND THE KEYS...

CITY           SKY/WX    TMP DP  RH WIND       PRES   REMARKS
FORT MYERS     MIX PCPN N/A N/A N/A NE7       29.84F
SW REGIONAL AP CLOUDY    70  67  90 NE7       29.84F
NAPLES         CLOUDY   N/A N/A N/A NE7       29.82F
MIAMI          CLOUDY    77  72  84 SE13      29.80F
WEST KENDALL   LGT RAIN  75  71  87 SE15G23   29.81S
HOMESTEAD      CLOUDY    75  75 100 SE12      29.79F
MARATHON       HVY RAIN  76  74  93 SE8       29.80S FOG
BOCA CHICA NAS LGT RAIN N/A N/A N/A E18       29.79S
KEY WEST INTL  MOCLDY    76  72  87 E15       29.79F

...INTERNATIONAL WEATHER...

CITY           SKY/WX    TMP DP  RH WIND       PRES   REMARKS
NASSAU BAHAMAS MOCLDY   N/A N/A N/A E7        29.86F
CANCUN MEXICO  PTCLDY    72  72 100 CALM      29.82F
COZUMEL MEXICO   N/A    N/A N/A N/A MISG        N/A

ADJACENT COASTAL WATERS...

STATION/POSITION TIME  SKY/WX   TEMP    WIND        PRES    WAVE
                                AIR SEA DIR/SP/G            HT/PER
                 (UTC)          (F)     (DEG/KT/KT) (MB)    (FT/S)
PULASKI SHOAL LI 0800            76     120/  4/  5 1009.2F
SAND KEY         0750            76                 1009.3S
LONG KEY         0700                    90/ 16       N/A
MOLASSES REEF    0600            72 78  170/ 25/ 27 1010.7
FOWEY ROCKS      0800            76 77  130/ 32/ 34 1009.2F
Buoy 42097       0700                                 N/A     3/ 5

$$




USA.gov is the U.S. government's official web portal to all federal, state and local government web resources and services.